sat.trackr.live / text

‹ back to catalog

YAOGAN-40 02A

NORAD 63918 · 2025-096A

PAYLOAD ACTIVE UNKNOWN

§ Identity

Operator
Country
PRC
Launch date
2025-05-11
Launch site
TAISC
Launch vehicle
Mass (kg)
RCS (m²)

External: N2YO · Heavens-Above · Gunter

§ Orbital elements

Epoch: 2026-09-21T23:32:20.217984Z

Period
101.95 min
Inclination
85.9973°
Eccentricity
0.0002299
Mean motion
14.12462444 rev/d
Perigee alt
849.3 km
Apogee alt
852.6 km
Semi-major
7,229.1 km
B*
2.4867e-5
RAAN
144.6301°
Arg perigee
94.0096°
Mean anomaly
266.1350°
Rev number
7,023

§ Raw data

YAOGAN-40 02A1 63918U 25096A   26264.98078956  .00000065  00000+0  24867-4 0  99922 63918  85.9973 144.6301 0002299  94.0096 266.1350 14.12462444 70236

JSON: /api/v1/satellites/63918 · /tle

For live sub-satellite position, see the globe view (requires WebGL).

§ Visibility from observer

Set your observer location to see the next 7 days of passes ≥ 10°. The values pass through the URL so the page stays shareable.

No JS? Fill the form by hand. The geolocation button needs JavaScript.